| time (UTC) | temp F | wind direction | speed MPH | gust MPH | rain 1hr in | rain 24hr in | rain mn in | humidity % | barometer mb |
| 20260506073059 | 37 | 328 | 0.0 | 0.0 | 0.01 | 0.22 | 0.01 | 1 | 1011.9 |
| 20260506071556 | 40 | 328 | 0.0 | 0.0 | 0.00 | 0.21 | 0.00 | 1 | 1011.0 |
| 20260506061540 | 43 | 322 | 0.0 | 0.0 | 0.03 | 0.21 | 0.00 | 1 | 1009.1 |
| 20260506044512 | 46 | 163 | 0.0 | 0.0 | 0.00 | 0.18 | 0.18 | 1 | 1007.3 |
| 20260506043009 | 46 | 163 | 0.0 | 0.0 | 0.00 | 0.18 | 0.18 | 1 | 1007.2 |
| 20260506041504 | 46 | 163 | 0.0 | 0.0 | 0.00 | 0.18 | 0.18 | 1 | 1006.9 |
| 20260506040100 | 46 | 168 | 0.0 | 0.0 | 0.00 | 0.18 | 0.18 | 1 | 1006.8 |
| 20260506034558 | 46 | 171 | 0.0 | 0.0 | 0.00 | 0.18 | 0.18 | 1 | 1006.7 |
| 20260506033048 | 47 | 186 | 0.0 | 0.0 | 0.00 | 0.18 | 0.18 | 1 | 1006.7 |
| 20260506031544 | 47 | 194 | 0.0 | 0.0 | 0.00 | 0.18 | 0.18 | 1 | 1006.4 |
| 20260506030039 | 48 | 115 | 0.0 | 0.0 | 0.01 | 0.18 | 0.18 | 1 | 1006.3 |
| 20260506024542 | 48 | 184 | 0.0 | 0.0 | 0.01 | 0.18 | 0.18 | 1 | 1005.9 |
| 20260506023030 | 49 | 184 | 0.0 | 0.0 | 0.01 | 0.18 | 0.18 | 1 | 1005.3 |
| 20260506021526 | 50 | 198 | 0.0 | 0.0 | 0.01 | 0.18 | 0.18 | 1 | 1005.2 |
| 20260506020024 | 51 | 200 | 0.0 | 0.0 | 0.00 | 0.17 | 0.17 | 1 | 1004.9 |
| 20260506014517 | 53 | 205 | 0.0 | 0.0 | 0.00 | 0.17 | 0.17 | 1 | 1004.7 |
| 20260506013013 | 54 | 205 | 0.0 | 0.0 | 0.00 | 0.17 | 0.17 | 1 | 1004.7 |
| 20260506011534 | 54 | 202 | 0.0 | 0.0 | 0.00 | 0.17 | 0.17 | 1 | 1004.8 |
| 20260506010005 | 54 | 207 | 0.0 | 0.0 | 0.00 | 0.17 | 0.17 | 1 | 1004.9 |
| 20260506004501 | 54 | 205 | 0.0 | 0.0 | 0.00 | 0.17 | 0.17 | 8 | 1005.2 |
| 20260506003057 | 54 | 207 | 0.0 | 0.0 | 0.00 | 0.17 | 0.17 | 10 | 1005.3 |
| 20260506001553 | 54 | 207 | 0.0 | 0.0 | 0.00 | 0.17 | 0.17 | 8 | 1005.4 |
| 20260506000113 | 54 | 194 | 0.0 | 0.0 | 0.00 | 0.17 | 0.17 | 11 | 1005.4 |
| 20260505234548 | 54 | 360 | 0.0 | 0.0 | 0.00 | 0.17 | 0.17 | 1 | 1005.6 |
| 20260505233039 | 52 | 360 | 0.0 | 0.0 | 0.00 | 0.17 | 0.17 | 1 | 1005.6 |
| 20260505231536 | 51 | 360 | 0.0 | 0.0 | 0.00 | 0.17 | 0.17 | 1 | 1005.9 |
| 20260505230050 | 50 | 360 | 0.0 | 0.0 | 0.00 | 0.17 | 0.17 | 1 | 1006.0 |
| 20260505224536 | 50 | 201 | 0.0 | 0.0 | 0.00 | 0.17 | 0.17 | 1 | 1006.1 |
| 20260505223024 | 49 | 244 | 0.0 | 0.0 | 0.00 | 0.17 | 0.17 | 1 | 1006.2 |
| 20260505221518 | 48 | 244 | 0.0 | 0.0 | 0.00 | 0.17 | 0.17 | 1 | 1006.3 |
| 20260505220012 | 46 | 318 | 0.0 | 0.0 | 0.00 | 0.17 | 0.17 | 1 | 1006.5 |
| 20260505214512 | 44 | 317 | 0.0 | 0.0 | 0.01 | 0.17 | 0.17 | 1 | 1006.7 |
| 20260505213004 | 44 | 317 | 0.0 | 0.0 | 0.03 | 0.17 | 0.17 | 1 | 1006.8 |
| 20260505211559 | 44 | 317 | 0.0 | 0.0 | 0.04 | 0.17 | 0.17 | 1 | 1006.9 |
| 20260505210055 | 43 | 317 | 0.0 | 0.0 | 0.04 | 0.17 | 0.17 | 1 | 1006.9 |
| 20260505204553 | 43 | 318 | 0.0 | 0.0 | 0.03 | 0.16 | 0.16 | 1 | 1007.1 |
| 20260505203056 | 44 | 308 | 0.0 | 0.0 | 0.01 | 0.14 | 0.14 | 1 | 1007.0 |
| 20260505201546 | 44 | 308 | 0.0 | 0.0 | 0.00 | 0.13 | 0.13 | 1 | 1006.9 |
| 20260505200037 | 44 | 277 | 0.0 | 0.0 | 0.00 | 0.13 | 0.13 | 1 | 1006.5 |
| 20260505194539 | 44 | 276 | 0.0 | 0.0 | 0.01 | 0.13 | 0.13 | 1 | 1006.4 |
| 20260505193028 | 45 | 276 | 0.0 | 0.0 | 0.02 | 0.13 | 0.13 | 1 | 1006.2 |
| 20260505191524 | 43 | 272 | 0.0 | 0.0 | 0.02 | 0.13 | 0.13 | 1 | 1006.3 |
| 20260505190019 | 42 | 270 | 0.0 | 0.0 | 0.03 | 0.13 | 0.13 | 1 | 1006.3 |
| 20260505184520 | 41 | 270 | 0.0 | 0.0 | 0.05 | 0.12 | 0.12 | 1 | 1006.3 |
| 20260505183011 | 41 | 292 | 0.0 | 0.0 | 0.06 | 0.11 | 0.11 | 1 | 1006.5 |
| 20260505181506 | 42 | 310 | 0.0 | 0.0 | 0.06 | 0.11 | 0.11 | 1 | 1006.4 |
| 20260505180003 | 41 | 333 | 0.0 | 0.0 | 0.05 | 0.10 | 0.10 | 1 | 1006.4 |
| 20260505174558 | 43 | 173 | 0.0 | 0.0 | 0.02 | 0.07 | 0.07 | 1 | 1006.1 |
| 20260505173111 | 43 | 161 | 0.0 | 0.0 | 0.00 | 0.05 | 0.05 | 1 | 1005.7 |
| 20260505171605 | 43 | 179 | 0.0 | 0.0 | 0.01 | 0.05 | 0.05 | 1 | 1005.2 |
| 20260505170045 | 43 | 161 | 0.0 | 0.0 | 0.03 | 0.05 | 0.05 | 1 | 1004.9 |
| 20260505164540 | 42 | 165 | 0.0 | 0.0 | 0.03 | 0.05 | 0.05 | 1 | 1004.7 |
| 20260505163035 | 42 | 200 | 0.0 | 0.0 | 0.03 | 0.05 | 0.05 | 1 | 1004.7 |
| 20260505161531 | 42 | 189 | 0.0 | 0.0 | 0.02 | 0.04 | 0.04 | 1 | 1004.8 |
| 20260505153017 | 42 | 240 | 0.0 | 0.0 | 0.00 | 0.02 | 0.02 | 1 | 1004.5 |
| 20260505151514 | 42 | 205 | 0.0 | 0.0 | 0.00 | 0.02 | 0.02 | 1 | 1004.4 |
| 20260505124539 | 46 | 176 | 0.0 | 0.0 | 0.01 | 0.01 | 0.01 | 1 | 1003.6 |
| 20260505123023 | 47 | 199 | 0.0 | 0.0 | 0.00 | 0.00 | 0.00 | 1 | 1003.5 |
| 20260505121530 | 48 | 191 | 0.0 | 0.0 | 0.00 | 0.00 | 0.00 | 1 | 1003.4 |
| 20260505120014 | 49 | 178 | 0.0 | 0.0 | 0.00 | 0.00 | 0.00 | 1 | 1003.4 |
| 20260505114511 | 48 | 178 | 0.0 | 0.0 | 0.00 | 0.00 | 0.00 | 1 | 1003.2 |
| 20260505113005 | 48 | 150 | 0.0 | 0.0 | 0.00 | 0.00 | 0.00 | 1 | 1003.2 |
| 20260505111502 | 49 | 150 | 0.0 | 0.0 | 0.00 | 0.00 | 0.00 | 1 | 1003.2 |
| 20260505101545 | 50 | 148 | 0.0 | 0.0 | 0.00 | 0.00 | 0.00 | 1 | 1003.2 |
| 20260505100051 | 50 | 153 | 0.0 | 0.0 | 0.00 | 0.00 | 0.00 | 5 | 1003.2 |
| 20260505094536 | 50 | 175 | 0.0 | 0.0 | 0.00 | 0.00 | 0.00 | 19 | 1003.2 |
| 20260505093032 | 51 | 200 | 0.0 | 0.0 | 0.00 | 0.00 | 0.00 | 33 | 1003.1 |
| 20260505091535 | 51 | 200 | 0.0 | 0.0 | 0.00 | 0.00 | 0.00 | 36 | 1003.2 |
| 20260505090029 | 51 | 223 | 0.0 | 0.0 | 0.00 | 0.00 | 0.00 | 38 | 1003.3 |
| 20260505084528 | 52 | 194 | 0.0 | 0.0 | 0.00 | 0.00 | 0.00 | 40 | 1003.3 |
| 20260505083036 | 52 | 201 | 0.0 | 0.0 | 0.00 | 0.00 | 0.00 | 40 | 1003.4 |
| 20260505081530 | 52 | 199 | 0.0 | 0.0 | 0.00 | 0.00 | 0.00 | 42 | 1003.4 |